Location: *
(28.3744°N, 81.5492°W)
Time: 04:23:07
(UTC+00:00)

Cosmos 2297 Rocket - Pass Details

Date: 15 June 2025
Orbit: 838 x 843 km, 71.0° (Epoch: 11 July)

Event Time Altitude Azimuth Distance (km) Brightness Sun altitude
Rises 02:06:01 0° 217° (SW) 3,381 5.3 -19.2°
Reaches altitude 10° 02:08:36 10° 225° (SW) 2,450 4.6 -19.7°
Maximum altitude 02:13:50 39° 293° (WNW) 1,235 3.6 -20.5°
Drops below altitude 10° 02:19:06 10° 2° (N) 2,462 5.2 -21.3°
Sets 02:21:43 0° 10° (N) 3,399 5.8 -21.8°
